When you browse on this site, cookies collect data to enhance your experience and personalize the content and advertising you see.
Visit our Privacy Policy to learn more. By continuing to use the site, you agree to this use of cookies and data.
  • In Hungary
  • List of Countries
  • For 7 days
  • Water Temperature
  • Satellite Maps
  • Weather Map
  • News
  • Weather Widgets
  • user-avatar
    Login

    Hourly Weather Lugo

    Today, 23 January, Wednesday

    Time Temperature Precipitation Wind Pressure Humidity
    00:00 +8°C° 1.3 mm 3 mps 720 mmHg 97%
    01:00 +8°C° 1.3 mm 3 mps 720 mmHg 97%
    02:00 +8°C° 1.3 mm 3 mps 720 mmHg 97%
    03:00 +9°C° 1.6 mm 3 mps 719 mmHg 97%
    04:00 +9°C° 1.6 mm 3 mps 719 mmHg 97%
    05:00 +9°C° 1.6 mm 3 mps 719 mmHg 97%
    06:00 +9°C° 1.2 mm 3 mps 720 mmHg 97%
    07:00 +9°C° 1.2 mm 3 mps 720 mmHg 97%
    08:00 +9°C° 1.2 mm 3 mps 720 mmHg 96%
    09:00 +9°C° 0.5 mm 3 mps 721 mmHg 96%
    10:00 +9°C° 0.5 mm 3 mps 721 mmHg 96%
    11:00 +9°C° 0.5 mm 3 mps 721 mmHg 96%
    12:00 +9°C° 0.2 mm 3 mps 721 mmHg 95%
    13:00 +9°C° 0.2 mm 3 mps 721 mmHg 95%
    14:00 +9°C° 0.2 mm 3 mps 721 mmHg 95%
    15:00 +9°C° 0.1 mm 3 mps 721 mmHg 96%
    16:00 +9°C° 0.1 mm 2 mps 721 mmHg 96%
    17:00 +9°C° 0.1 mm 2 mps 721 mmHg 97%
    18:00 +9°C° 0.2 mm 2 mps 721 mmHg 98%
    19:00 +10°C° 0.2 mm 1 mps 722 mmHg 98%
    20:00 +10°C° 0.2 mm 1 mps 722 mmHg 98%
    21:00 +10°C° 0.6 mm 1 mps 722 mmHg 98%
    22:00 +10°C° 0.6 mm 1 mps 722 mmHg 98%
    23:00 +9°C° 0.6 mm 2 mps 722 mmHg 98%

    Tomorrow, 24 January, Thursday

    Time Temperature Precipitation Wind Pressure Humidity
    00:00 +10°C° 0.3 mm 2 mps 722 mmHg 98%
    01:00 +10°C° 0.3 mm 2 mps 722 mmHg 98%
    02:00 +10°C° 0.3 mm 3 mps 722 mmHg 97%
    03:00 +10°C° 0.1 mm 2 mps 722 mmHg 97%
    04:00 +10°C° 0.1 mm 2 mps 722 mmHg 97%
    05:00 +10°C° 0.1 mm 2 mps 722 mmHg 97%
    06:00 +10°C° 0.1 mm 2 mps 722 mmHg 97%
    07:00 +10°C° 0.1 mm 2 mps 723 mmHg 97%
    08:00 +10°C° 0.1 mm 2 mps 723 mmHg 97%
    09:00 +10°C° 0.1 mm 2 mps 723 mmHg 95%
    10:00 +10°C° 0.1 mm 2 mps 723 mmHg 94%
    11:00 +11°C° 0.1 mm 3 mps 723 mmHg 93%
    12:00 +10°C° 0.1 mm 2 mps 723 mmHg 93%
    13:00 +10°C° 0.1 mm 2 mps 723 mmHg 94%
    14:00 +10°C° 0.1 mm 2 mps 723 mmHg 95%
    15:00 +10°C° 0.1 mm 2 mps 724 mmHg 95%
    16:00 +9°C° 0.1 mm 2 mps 724 mmHg 96%
    17:00 +9°C° 0.1 mm 2 mps 724 mmHg 97%
    18:00 +10°C° 0 mm 1 mps 725 mmHg 97%
    19:00 +10°C° 0 mm 1 mps 725 mmHg 97%
    20:00 +10°C° 0 mm 1 mps 726 mmHg 97%
    21:00 +9°C° 0 mm 1 mps 726 mmHg 98%
    22:00 +9°C° 0 mm 1 mps 726 mmHg 98%
    23:00 +9°C° 0 mm 1 mps 726 mmHg 98%

    Day after tomorrow, 25 January, Friday

    Time Temperature Precipitation Wind Pressure Humidity
    00:00 +9°C° 0 mm 1 mps 726 mmHg 98%
    01:00 +8°C° 0 mm 1 mps 726 mmHg 98%
    02:00 +8°C° 0 mm 1 mps 726 mmHg 99%
    03:00 +8°C° 0 mm 1 mps 726 mmHg 99%
    04:00 +8°C° 0 mm 1 mps 726 mmHg 99%
    05:00 +8°C° 0 mm 1 mps 726 mmHg 99%
    06:00 +8°C° 0 mm 1 mps 726 mmHg 98%
    07:00 +8°C° 0 mm 1 mps 727 mmHg 97%
    08:00 +9°C° 0 mm 1 mps 727 mmHg 97%
    09:00 +8°C° 0 mm 2 mps 727 mmHg 92%
    10:00 +9°C° 0 mm 2 mps 728 mmHg 88%
    11:00 +9°C° 0 mm 2 mps 728 mmHg 83%
    12:00 +10°C° 0 mm 2 mps 727 mmHg 81%
    13:00 +10°C° 0 mm 2 mps 727 mmHg 78%
    14:00 +10°C° 0 mm 2 mps 727 mmHg 75%
    15:00 +9°C° 0 mm 2 mps 727 mmHg 80%
    16:00 +8°C° 0 mm 2 mps 727 mmHg 85%
    17:00 +8°C° 0 mm 1 mps 727 mmHg 90%
    18:00 +7°C° 0 mm 1 mps 727 mmHg 93%
    19:00 +6°C° 0 mm 1 mps 727 mmHg 96%
    20:00 +6°C° 0 mm 1 mps 728 mmHg 98%
    21:00 +5°C° 0 mm 1 mps 728 mmHg 98%
    22:00 +5°C° 0 mm 1 mps 728 mmHg 98%
    23:00 +5°C° 0 mm 1 mps 728 mmHg 98%

    26 January, Saturday

    Time Temperature Precipitation Wind Pressure Humidity
    00:00 +5°C° 0 mm 1 mps 727 mmHg 98%
    01:00 +6°C° 0 mm 1 mps 727 mmHg 97%
    02:00 +6°C° 0 mm 1 mps 727 mmHg 97%
    03:00 +6°C° 0 mm 1 mps 727 mmHg 97%
    04:00 +5°C° 0 mm 0 mps 727 mmHg 96%
    05:00 +5°C° 0 mm 0 mps 726 mmHg 96%
    06:00 +5°C° 0 mm 0 mps 727 mmHg 95%
    07:00 +5°C° 0 mm 0 mps 727 mmHg 94%
    08:00 +5°C° 0 mm 0 mps 727 mmHg 94%
    09:00 +6°C° 0 mm 0 mps 727 mmHg 90%
    10:00 +7°C° 0 mm 0 mps 727 mmHg 87%
    11:00 +8°C° 0 mm 1 mps 727 mmHg 83%
    12:00 +9°C° 0 mm 1 mps 726 mmHg 84%
    13:00 +9°C° 0 mm 1 mps 726 mmHg 84%
    14:00 +9°C° 0 mm 1 mps 725 mmHg 84%
    15:00 +9°C° 0 mm 1 mps 725 mmHg 88%
    16:00 +8°C° 0 mm 1 mps 725 mmHg 91%
    17:00 +8°C° 0 mm 1 mps 725 mmHg 95%
    18:00 +8°C° 0.1 mm 1 mps 725 mmHg 96%
    19:00 +8°C° 0.1 mm 1 mps 726 mmHg 97%
    20:00 +8°C° 0.1 mm 1 mps 726 mmHg 97%
    21:00 +7°C° 0.1 mm 1 mps 726 mmHg 97%
    22:00 +7°C° 0.1 mm 1 mps 726 mmHg 98%
    23:00 +6°C° 0.1 mm 1 mps 726 mmHg 98%

    27 January, Sunday

    Time Temperature Precipitation Wind Pressure Humidity
    00:00 +5°C° 0 mm 1 mps 726 mmHg 98%
    01:00 +5°C° 0 mm 1 mps 726 mmHg 98%
    02:00 +4°C° 0 mm 1 mps 725 mmHg 98%
    03:00 +4°C° 0 mm 1 mps 725 mmHg 98%
    04:00 +4°C° 0 mm 1 mps 725 mmHg 98%
    05:00 +4°C° 0 mm 1 mps 725 mmHg 98%
    06:00 +5°C° 0.1 mm 1 mps 726 mmHg 98%
    07:00 +5°C° 0.1 mm 1 mps 726 mmHg 97%
    08:00 +5°C° 0.1 mm 1 mps 726 mmHg 97%
    09:00 +6°C° 0.1 mm 1 mps 726 mmHg 92%
    10:00 +6°C° 0.1 mm 2 mps 726 mmHg 88%
    11:00 +7°C° 0.1 mm 3 mps 726 mmHg 83%
    12:00 +7°C° 0.2 mm 3 mps 725 mmHg 85%
    13:00 +5°C° 0.2 mm 3 mps 725 mmHg 86%
    14:00 +5°C° 0.2 mm 3 mps 724 mmHg 87%
    15:00 +5°C° 0.2 mm 3 mps 724 mmHg 89%
    16:00 +5°C° 0.2 mm 2 mps 725 mmHg 92%
    17:00 +5°C° 0.2 mm 2 mps 725 mmHg 94%
    18:00 +5°C° 0.2 mm 2 mps 725 mmHg 94%
    19:00 +5°C° 0.2 mm 2 mps 725 mmHg 95%
    20:00 +5°C° 0.2 mm 2 mps 725 mmHg 95%
    21:00 +4°C° 0.2 mm 2 mps 725 mmHg 95%
    22:00 +4°C° 0.2 mm 2 mps 725 mmHg 95%
    23:00 +4°C° 0.2 mm 2 mps 725 mmHg 95%

    28 January, Monday

    Time Temperature Precipitation Wind Pressure Humidity
    00:00 +4°C° 0.1 mm 1 mps 725 mmHg 95%
    01:00 +4°C° 0.1 mm 1 mps 724 mmHg 96%
    02:00 +3°C° 0.1 mm 1 mps 724 mmHg 96%
    03:00 +4°C° 0.2 mm 1 mps 724 mmHg 96%
    04:00 +3°C° 0.2 mm 2 mps 724 mmHg 96%
    05:00 +3°C° 0.2 mm 2 mps 724 mmHg 96%
    06:00 +3°C° 0.2 mm 2 mps 724 mmHg 95%
    07:00 +3°C° 0.2 mm 2 mps 725 mmHg 94%
    08:00 +3°C° 0.2 mm 2 mps 725 mmHg 92%
    09:00 +3°C° 0.1 mm 3 mps 725 mmHg 89%
    10:00 +3°C° 0.1 mm 3 mps 725 mmHg 85%
    11:00 +4°C° 0.1 mm 4 mps 726 mmHg 82%
    12:00 +4°C° 0.2 mm 4 mps 726 mmHg 82%
    13:00 +4°C° 0.2 mm 3 mps 725 mmHg 82%
    14:00 +4°C° 0.2 mm 3 mps 725 mmHg 82%
    15:00 +3°C° 0.1 mm 3 mps 725 mmHg 86%
    16:00 +3°C° 0.1 mm 2 mps 726 mmHg 89%
    17:00 +3°C° 0.1 mm 1 mps 726 mmHg 93%
    18:00 +3°C° 0 mm 1 mps 726 mmHg 94%
    19:00 +2°C° 0 mm 1 mps 726 mmHg 96%
    20:00 +1°C° 0 mm 1 mps 727 mmHg 98%
    21:00 +1°C° 0 mm 1 mps 727 mmHg 98%
    22:00 +2°C° 0 mm 1 mps 727 mmHg 98%
    23:00 +2°C° 0 mm 1 mps 727 mmHg 98%
    Show more